Погода в Архиповке

Украина / Черниговская область     52°14′05″N   32°49′26″E
темп.,
°C
ветер,
м/с
пор.,
м/с
влажн.,
%
обл.,
%
осадки,
мм/ч
давл.,
гПа
погр.,
м
21 января, пт
пт2123:00−2ююз51095100 0.3 1002494
02:00−1юз51092100 0.3 1001640
05:00−5юз5109360 0.4 1000246
08:00−7юз6139467 0.4 1000321
11:00−4ююз71394100 0.1 999687
14:00−3юз81396100 0.9 997975
17:00−2юз81496100 1.2 996808
20:00−2зюз71395100 2.3 997737
22 января, сб
сб2223:00−3зюз5109586 0.3 999428
02:00−4зюз41096100 0.6 1001329
05:00−5зюз5109599 0.3 1002345
08:00−6зюз489678 0.5 1004245
11:00−4зюз4694100 0.1 1006386
14:00−3зюз349397 0.4 1007409
17:00−11сз229741 0.1 101014
20:00−15сз2210096 0.1 101211
23 января, вс
вс2323:00−14с1110094 0.0 101410
02:00−16с22100100 0.1 101611
05:00−16св2210099 0.1 101829
08:00−17св23100100 0.1 102239
11:00−10всв349599 0.0 1024163
14:00−7св349389 0.0 1026229
17:00−12ссв359870 0.0 102956
20:00−12св389767 0.0 1031106
24 января, пн
пн2423:00−14св379876 0.0 103391
02:00−14ссв489867 0.0 1033109
05:00−14ссв5129670 0.0 1033185
08:00−13ссв5129552 0.0 1034215
11:00−10св51291100 0.0 1033291
14:00−7ссв5992100 0.0 1032337
17:00−8ссв599472 0.0 1032250
20:00−13ссв369756 0.0 103374
25 января, вт
вт2523:00−14ссв349862 0.0 103151
02:00−17ссв229963 0.0 103121
05:00−18с2210077 0.0 103013
08:00−19ссв2210071 0.0 102912
11:00−11ссз119261 0.0 1027116
14:00−8зюз129033 0.0 1024163
17:00−13юз229862 0.0 102410
20:00−16ююз2210095 0.0 102228